Home > Weather > Orléans > Past weeks

Flag for France Weather for the Past 2 Weeks in Orléans, France

Now
39 °F

Mostly cloudy.


Feels Like: 39 °F
Forecast: 39 / 47 °F
Wind: 2 mph from South

Location: Orleans Airport

Current Time: Feb 13, 2016 at 2:14:49 AM

Latest Report: Feb 13, 2016 at 1:00 AM


Visibility: N/A

Pressure: 29.39 "Hg

Humidity: 100%

Dew point: 39 °F

Location of OrléansLocation

Historic Weather in Orléans — Graph

°F

Orléans Temperature Yesterday

Maximum temperature yesterday: 43 °F (at 4:00 PM)
Minimum temperature yesterday: 34 °F (at 1:00 AM)
Average temperature yesterday: 38 °F

High & Low Weather Summary for the Past Weeks

 TemperatureHumidityPressure
High59 °F (Feb 6, 4:30 PM)100% (Jan 29, 1:00 AM)30.51 "Hg (Jan 29, 1:00 AM)
Low30 °F (Feb 11, 7:00 AM)48% (Feb 6, 4:30 PM)29.15 "Hg (Feb 9, 11:30 AM)
Average45 °F88%29.95 "Hg
* Reported Jan 29 1:00 AM — Feb 13 1:00 AM, Orléans, Weather by CustomWeather, © 2016

Note: Actual official high and low records may vary slightly from our data, if they occured in-between our weather recording intervals... More about our weather records

Advertising

Orléans Weather History for the Previous 24 Hours

 ConditionsComfort  
Time TempWeatherWind HumidityBarometerVisibility
1:00 AM
Sat, Feb 13
39 °FMostly cloudy.2 mph100%29.39 "HgN/A
12:00 AM37 °FPassing clouds.1 mph100%29.36 "Hg6 mi
11:00 PM
Fri, Feb 12
37 °FPassing clouds.No wind100%29.39 "HgN/A
10:30 PM39 °FPartly cloudy.5 mph100%29.36 "HgN/A
10:00 PM39 °FDrizzle. Fog.3 mph100%29.36 "Hg3 mi
9:30 PM39 °FLow clouds.5 mph100%29.36 "Hg4 mi
9:00 PM39 °FDrizzle. Mostly cloudy.6 mph100%29.36 "Hg4 mi
8:30 PM39 °FDrizzle. Mostly cloudy.6 mph100%29.33 "Hg4 mi
8:00 PM39 °FDrizzle. Mostly cloudy.7 mph100%29.33 "Hg4 mi
7:30 PM41 °FDrizzle. Low clouds.2 mph100%29.30 "Hg4 mi
7:00 PM41 °FLight rain. Partly cloudy.No wind100%29.30 "Hg4 mi
6:30 PM41 °FLight rain. Mostly cloudy.3 mph100%29.27 "Hg4 mi
6:00 PM41 °FBroken clouds.3 mph100%29.27 "HgN/A
5:30 PM41 °FLight rain. Broken clouds.2 mph100%29.27 "HgN/A
5:00 PM43 °FDrizzle. Low clouds.5 mph93%29.27 "Hg5 mi
4:30 PM43 °FLow clouds.7 mph93%29.24 "HgN/A
4:00 PM43 °FMostly cloudy.6 mph93%29.24 "HgN/A
3:30 PM41 °FLight rain. Low clouds.6 mph100%29.24 "HgN/A
3:00 PM41 °FLight rain. Overcast.7 mph100%29.21 "HgN/A
2:30 PM41 °FLight rain. Overcast.6 mph93%29.21 "HgN/A
2:00 PM41 °FLight rain. Mostly cloudy.5 mph93%29.21 "HgN/A
1:30 PM41 °FLight rain. Mostly cloudy.6 mph100%29.21 "HgN/A
1:00 PM39 °FLight rain. Mostly cloudy.5 mph100%29.21 "HgN/A
12:30 PM39 °FLight rain. Mostly cloudy.8 mph100%29.21 "HgN/A
12:00 PM39 °FLight rain. Mostly cloudy.12 mph100%29.21 "HgN/A
11:30 AM39 °FLight rain. Mostly cloudy.15 mph100%29.24 "HgN/A
11:00 AM39 °FLight rain. Mostly cloudy.14 mph100%29.24 "HgN/A
10:30 AM39 °FDrizzle. Fog.15 mph93%29.27 "Hg2 mi
10:00 AM39 °FLight rain. Mostly cloudy.13 mph93%29.30 "HgN/A
9:30 AM39 °FLight rain. Mostly cloudy.14 mph93%29.30 "HgN/A
9:00 AM39 °FMostly cloudy.13 mph93%29.33 "HgN/A
8:30 AM37 °FMostly cloudy.13 mph100%29.36 "HgN/A
8:00 AM37 °FMostly cloudy.9 mph100%29.39 "HgN/A
7:30 AM37 °FLight rain. Passing clouds.9 mph100%29.42 "HgN/A
7:00 AM37 °FLight rain. Passing clouds.9 mph100%29.45 "HgN/A
6:30 AM37 °FLight rain. Mostly cloudy.10 mph100%29.45 "HgN/A
6:00 AM37 °FLight rain. Mostly cloudy.10 mph93%29.47 "HgN/A
5:30 AM37 °FPartly cloudy.12 mph93%29.50 "HgN/A
5:00 AM36 °FPassing clouds.12 mph100%29.50 "HgN/A
4:30 AM36 °FMostly cloudy.10 mph100%29.53 "HgN/A
4:00 AM36 °FPartly cloudy.10 mph100%29.59 "HgN/A
3:30 AM34 °FMostly cloudy.8 mph100%29.59 "HgN/A
3:00 AM34 °FClear.8 mph100%29.59 "Hg10 mi
2:30 AM34 °FClear.8 mph100%29.62 "Hg10 mi
2:00 AM34 °FClear.8 mph100%29.62 "Hg10 mi
Weather by CustomWeather, © 2016

See weather overviewHow to use our weather pages